Wind_Speed
41 41 43 35 29 25 25 21 18 18 20 19 17 12 7 5 7 4 1 4 4 4 4 9 5 4 5 1 2 3 7 6 6 10 9 9 7 4 2 6 13 12 11 10
42 43 40 34 28 27 26 23 17 20 21 19 20 17 11 8 12 10 5 4 6 4 2 6 6 9 8 8 9 11 14 16 14 10 9 10 5 11 14 9 13 14 16 15
41 45 39 33 32 27 29 25 20 20 20 21 20 23 20 17 14 12 11 9 6 4 3 2 3 9 12 13 14 15 19 22 20 21 13 16 14 15 16 18 22 21 20 19
40 44 39 31 29 28 29 23 20 18 19 21 21 21 16 17 13 18 19 16 10 5 3 2 8 10 12 10 11 11 14 19 21 27 20 19 20 18 22 25 28 25 25 26
44 47 42 33 30 25 33 24 20 20 19 22 22 20 18 22 14 19 23 23 14 11 6 9 3 9 10 10 7 11 12 12 18 23 25 24 21 24 25 29 28 29 31 39
49 51 48 42 35 31 32 27 24 21 16 22 18 21 19 23 17 17 20 19 19 13 14 13 5 8 9 8 10 14 13 13 13 17 21 25 31 37 38 38 37 40 46 51
48 50 54 47 42 38 35 32 28 17 15 20 18 21 23 22 22 20 24 27 24 22 22 21 16 7 5 10 16 14 14 17 13 13 14 19 27 32 38 40 44 47 49 50
55 54 57 52 47 42 41 32 30 22 19 19 20 21 25 23 24 24 25 24 24 21 25 25 22 17 13 16 14 16 17 16 21 19 15 14 16 20 23 28 32 34 34 33
63 57 57 56 51 44 39 36 34 28 25 22 21 22 25 25 26 28 24 26 26 23 27 29 21 19 16 18 22 24 23 24 26 23 16 17 21 24 24 28 28 28 29 30
69 61 61 60 55 47 43 41 38 33 30 27 25 24 27 30 25 28 25 26 29 31 28 28 25 24 25 29 29 33 30 30 29 25 27 34 37 37 34 31 28 23 24 27
75 69 68 67 56 56 50 45 41 40 32 31 27 26 29 30 28 27 29 28 29 30 30 32 30 29 29 31 29 29 31 24 24 26 34 37 33 32 32 28 21 19 24 29
78 74 74 69 68 63 58 49 44 39 38 36 31 28 31 30 29 30 32 30 29 34 34 30 30 31 30 31 28 28 28 30 26 29 35 30 28 31 26 25 15 19 29 33
75 78 74 75 76 69 63 58 52 42 39 37 37 33 35 32 31 32 33 34 34 34 35 39 38 33 31 30 28 31 32 29 29 31 33 30 31 33 33 32 25 29 33 32
73 73 76 77 78 75 70 67 60 52 43 40 40 39 39 35 33 31 33 37 40 38 37 36 36 35 36 32 31 32 32 31 30 31 29 30 31 41 43 41 38 36 32 38
73 73 69 74 79 79 75 73 69 60 52 47 42 40 41 38 38 36 33 35 40 42 42 43 42 38 35 31 31 32 33 35 37 34 33 35 37 46 46 42 39 36 34 33
68 71 71 69 75 82 80 76 73 70 63 53 47 43 42 42 40 41 39 40 44 41 43 47 46 41 35 34 36 31 26 39 35 42 43 43 49 55 51 53 44 40 38 37
63 65 67 69 71 74 82 82 78 75 69 62 53 49 43 43 42 42 41 44 45 45 49 49 47 45 40 41 36 30 19 16 36 47 53 53 54 59 61 52 48 44 38 50
57 62 62 65 71 70 77 82 83 80 74 69 60 54 49 46 42 43 46 47 49 48 42 41 45 45 43 39 34 31 27 21 30 42 52 53 54 52 50 40 42 46 47 59
44 55 61 62 69 70 74 77 84 84 79 74 67 60 53 48 45 45 46 47 47 45 43 44 45 40 41 38 35 35 39 35 41 41 47 59 62 55 55 38 45 58 68 74
41 46 56 64 67 68 72 74 80 82 82 76 67 62 56 52 48 50 47 46 46 47 47 47 48 41 37 39 37 39 44 46 45 53 57 60 65 59 57 59 65 68 74 74
47 42 42 59 67 71 70 74 76 78 79 77 72 66 64 60 54 56 52 51 50 51 50 50 47 39 38 40 40 44 46 49 53 56 61 66 65 60 55 61 63 63 63 61
45 47 39 49 65 72 70 72 73 73 72 74 76 72 69 68 63 61 59 58 56 55 51 48 43 38 36 39 46 50 55 52 52 55 55 57 60 58 58 56 48 51 58 68
42 41 35 40 58 66 69 71 72 72 73 72 72 73 73 70 69 65 63 61 57 55 50 46 41 36 31 33 42 41 43 51 57 52 55 57 63 61 61 58 55 59 64 70
39 37 30 36 50 64 70 70 71 74 72 68 71 71 72 71 72 71 69 68 66 61 53 46 30 24 30 37 27 40 50 56 57 55 56 58 55 54 47 45 57 60 67 68
39 34 29 35 47 58 67 73 71 71 73 68 68 68 70 71 74 76 74 74 72 65 58 43 31 16 17 33 48 49 45 53 63 62 62 60 54 50 44 50 55 63 69 61
45 36 30 31 45 54 65 70 72 72 70 68 66 67 69 70 73 77 76 75 74 71 63 47 45 37 33 49 48 36 33 33 45 45 44 47 41 42 49 56 66 68 68 59
Wind_Direction
277 283 285 291 290 290 291 290 290 291 288 278 274 252 278 301 233 235 277 130 178 223 200 198 209 192 148 113 16 36 340 343 331 310 281 297 246 258 220 252 236 255 269 281
272 275 280 288 285 278 281 281 288 287 277 270 266 264 257 243 246 272 271 196 118 112 147 189 243 289 300 289 291 296 300 310 312 297 276 258 206 237 240 259 271 273 281 284
265 268 277 283 286 279 273 279 287 285 274 275 271 266 265 248 213 249 250 223 192 197 113 134 281 305 295 283 277 278 285 294 301 303 281 270 259 267 269 264 268 274 279 294
261 264 270 279 286 281 273 276 271 265 265 269 268 261 267 253 244 230 234 250 224 193 115 75 291 293 295 275 278 283 286 283 282 283 283 270 247 257 256 263 268 281 282 282
262 266 269 271 268 266 265 260 251 252 247 257 260 269 272 263 255 233 232 248 228 208 173 141 28 323 302 292 342 348 337 316 281 270 269 263 266 279 273 268 263 269 273 282
259 263 264 262 262 257 255 255 248 242 244 254 250 258 257 266 271 233 219 236 229 227 213 218 241 315 323 331 345 358 353 315 285 269 265 264 265 267 272 274 268 264 268 284
252 256 259 259 257 256 253 256 257 244 226 245 250 253 261 263 269 254 232 236 243 236 239 240 234 229 247 320 334 317 348 1 342 313 299 288 282 273 274 277 278 279 279 281
245 249 257 258 256 251 255 253 254 249 232 225 243 240 246 257 260 254 241 235 238 242 236 236 245 232 261 294 316 316 334 349 349 350 330 315 300 305 302 296 291 287 283 283
246 247 252 258 258 256 254 254 251 247 241 226 223 239 239 246 248 256 247 236 236 234 247 251 243 252 266 297 305 304 308 322 339 345 5 4 342 332 328 322 308 300 300 302
244 244 248 251 255 258 255 249 248 247 246 240 225 227 234 235 240 249 248 233 236 238 244 245 242 267 280 291 295 298 304 309 320 327 333 324 317 319 325 331 329 331 338 334
240 239 242 247 250 252 250 251 247 244 241 244 241 237 234 234 238 244 248 246 241 252 257 256 264 276 279 285 290 298 303 299 308 314 331 326 328 323 330 336 344 2 358 351
237 237 237 242 246 246 249 247 247 244 243 241 242 241 237 235 237 242 250 246 250 251 255 260 269 277 277 279 290 293 299 300 297 309 325 332 337 333 336 339 330 352 352 349
240 237 235 238 241 244 246 246 245 240 239 242 238 238 242 234 233 238 245 251 254 253 254 257 264 273 268 279 286 295 302 311 311 314 320 329 344 340 336 333 321 316 325 332
238 239 236 235 240 240 241 244 245 242 235 237 235 234 241 241 236 232 237 249 251 255 257 263 266 270 271 282 294 298 308 312 311 312 314 327 337 334 328 331 320 320 317 322
237 235 235 235 236 240 239 240 242 241 238 235 234 235 238 236 241 236 231 242 250 252 255 258 263 268 274 284 290 295 305 312 310 314 310 325 329 326 323 327 323 318 323 320
238 239 235 234 234 236 238 238 239 240 238 232 228 232 235 234 234 239 236 238 248 245 248 254 261 265 271 277 281 290 306 318 308 307 307 310 317 318 318 316 317 312 320 325
243 239 236 235 235 235 237 237 238 238 238 236 228 226 229 235 232 235 237 244 247 252 251 255 261 265 266 268 276 274 301 299 299 302 294 298 307 311 309 313 314 316 320 331
243 239 240 234 236 234 235 237 236 236 237 235 231 227 226 230 228 234 235 240 246 248 257 264 264 264 266 268 267 265 276 257 254 278 284 289 291 297 309 314 319 322 323 327
251 243 237 234 237 234 235 236 238 236 235 234 230 229 228 230 228 230 234 240 247 253 254 255 258 260 262 265 262 259 268 262 249 256 270 273 278 282 291 311 316 320 321 322
259 246 237 234 234 235 235 236 238 237 236 236 234 229 229 231 232 232 232 236 242 246 249 252 254 255 260 262 262 265 275 279 271 254 256 263 273 280 289 297 301 311 316 320
267 263 246 236 231 232 234 233 237 239 238 236 234 232 228 230 229 235 231 232 236 244 245 249 254 258 259 266 269 273 281 288 286 280 273 269 277 281 287 302 314 317 320 321
269 265 257 238 228 229 231 235 235 239 239 238 235 230 230 229 228 232 235 236 235 240 246 252 258 263 266 273 282 281 286 283 282 286 284 283 286 290 297 304 313 318 320 321
278 270 262 241 227 224 228 232 234 236 237 236 235 234 231 230 231 233 237 242 243 245 246 250 255 260 265 277 288 296 274 275 286 279 282 289 287 289 295 304 304 305 317 319
283 275 264 238 225 222 223 228 233 237 237 236 236 231 231 231 233 232 234 239 243 245 246 247 250 266 271 279 282 270 274 285 284 282 273 281 283 287 295 301 309 316 317 315
273 275 262 242 227 219 224 226 229 234 237 234 236 235 230 228 231 234 234 236 239 242 245 246 241 256 265 281 255 269 275 275 285 280 277 274 277 288 301 304 316 317 315 317
275 264 260 249 230 219 223 227 227 231 236 236 235 236 235 228 227 233 235 237 241 243 244 240 241 245 213 223 255 272 264 279 283 289 293 290 288 297 298 308 315 317 319 313
Height
10945 10945 10942 10945 10948 10951 10950 10950 10951 10952 10952 10952 10952 10954 10956 10956 10958 10959 10958 10958 10956 10957 10958 10957 10956 10954 10954 10958 10960 10961 10962 10962 10961 10960 10959 10958 10957 10957 10957 10959 10956 10954 10953 10954
10939 10939 10938 10941 10942 10944 10945 10946 10949 10948 10948 10949 10948 10950 10953 10953 10954 10957 10957 10959 10958 10957 10955 10955 10955 10955 10954 10954 10956 10957 10959 10959 10959 10958 10957 10955 10953 10953 10954 10954 10952 10951 10951 10951
10932 10930 10934 10937 10936 10937 10937 10940 10945 10944 10943 10944 10947 10947 10950 10950 10953 10955 10953 10957 10957 10957 10955 10955 10955 10955 10954 10953 10953 10954 10955 10955 10954 10955 10954 10954 10952 10952 10950 10950 10948 10948 10947 10947
10924 10922 10927 10933 10933 10931 10930 10936 10938 10938 10939 10940 10942 10945 10945 10944 10952 10952 10953 10955 10957 10958 10956 10955 10957 10958 10956 10954 10953 10952 10951 10952 10951 10951 10952 10951 10951 10950 10948 10947 10944 10945 10943 10943
10915 10913 10919 10926 10927 10928 10922 10930 10933 10934 10936 10936 10938 10939 10941 10940 10946 10949 10951 10953 10956 10956 10954 10953 10956 10958 10957 10954 10951 10949 10946 10947 10947 10947 10948 10949 10947 10945 10944 10943 10941 10940 10938 10937
10904 10904 10909 10913 10919 10921 10920 10924 10927 10931 10935 10934 10937 10937 10939 10936 10941 10944 10947 10948 10952 10954 10953 10952 10952 10954 10954 10953 10951 10949 10946 10945 10944 10943 10942 10943 10943 10941 10939 10939 10937 10934 10931 10927
10893 10895 10895 10902 10910 10913 10915 10918 10922 10927 10930 10931 10935 10934 10935 10934 10936 10939 10943 10944 10947 10950 10949 10950 10951 10950 10950 10950 10949 10949 10947 10945 10944 10941 10938 10938 10937 10936 10934 10931 10928 10926 10923 10920
10881 10884 10883 10891 10898 10904 10906 10914 10918 10922 10925 10928 10931 10931 10931 10932 10931 10933 10936 10939 10941 10944 10945 10945 10946 10947 10948 10948 10947 10947 10946 10944 10941 10937 10934 10933 10935 10933 10930 10926 10922 10919 10916 10912
10871 10879 10878 10879 10885 10895 10903 10906 10910 10915 10918 10923 10926 10926 10927 10928 10929 10929 10933 10934 10937 10939 10940 10942 10943 10942 10942 10942 10942 10942 10941 10938 10936 10934 10932 10931 10931 10930 10926 10921 10916 10912 10908 10905
10859 10869 10868 10868 10874 10883 10889 10894 10900 10906 10912 10916 10920 10922 10922 10923 10925 10924 10926 10931 10932 10935 10936 10938 10938 10938 10938 10937 10937 10935 10934 10932 10931 10930 10928 10926 10923 10920 10917 10912 10907 10903 10901 10899
10842 10854 10853 10854 10870 10866 10873 10880 10887 10893 10903 10908 10912 10915 10915 10917 10919 10919 10919 10921 10924 10925 10928 10930 10932 10932 10932 10932 10931 10931 10930 10928 10926 10925 10922 10920 10915 10914 10911 10906 10901 10897 10894 10893
10824 10834 10840 10846 10847 10854 10859 10867 10873 10883 10890 10897 10904 10907 10907 10910 10913 10914 10913 10915 10916 10917 10920 10923 10925 10926 10926 10926 10926 10926 10924 10922 10920 10918 10916 10913 10910 10908 10904 10900 10897 10893 10890 10887
10805 10815 10826 10830 10832 10841 10849 10854 10859 10868 10875 10885 10892 10898 10898 10903 10907 10910 10909 10908 10908 10910 10913 10915 10917 10917 10918 10919 10920 10920 10920 10916 10913 10910 10909 10907 10903 10902 10899 10896 10893 10887 10883 10879
10786 10795 10807 10815 10816 10825 10835 10839 10847 10854 10862 10869 10877 10886 10889 10895 10899 10903 10904 10900 10900 10903 10905 10905 10906 10909 10910 10911 10912 10912 10910 10906 10904 10902 10900 10897 10893 10893 10891 10889 10887 10881 10875 10872
10769 10777 10790 10800 10805 10807 10816 10824 10831 10842 10849 10855 10864 10873 10878 10885 10887 10891 10896 10894 10891 10894 10895 10896 10897 10901 10903 10906 10906 10906 10903 10898 10895 10894 10894 10890 10885 10885 10884 10883 10879 10875 10869 10865
10753 10763 10774 10780 10785 10789 10798 10807 10816 10823 10831 10841 10850 10858 10865 10871 10878 10880 10885 10883 10879 10884 10884 10885 10889 10894 10897 10899 10899 10900 10898 10894 10885 10885 10886 10884 10877 10876 10876 10874 10872 10868 10863 10858
10739 10747 10757 10767 10770 10779 10781 10790 10798 10806 10817 10828 10839 10844 10853 10859 10867 10871 10874 10872 10872 10873 10875 10879 10882 10885 10889 10890 10892 10891 10885 10886 10887 10881 10876 10876 10872 10869 10864 10863 10861 10859 10854 10847
10728 10733 10743 10753 10753 10762 10764 10771 10780 10789 10801 10813 10827 10834 10841 10846 10855 10858 10861 10862 10861 10863 10868 10871 10872 10876 10879 10882 10883 10883 10881 10877 10873 10873 10867 10865 10862 10856 10852 10851 10849 10847 10842 10836
10715 10721 10728 10732 10736 10746 10747 10756 10760 10772 10784 10796 10809 10821 10832 10837 10842 10845 10849 10852 10856 10859 10859 10858 10859 10864 10867 10870 10872 10871 10867 10867 10863 10860 10857 10851 10846 10843 10843 10839 10836 10834 10830 10824
10699 10703 10711 10718 10722 10726 10731 10741 10745 10755 10767 10784 10799 10810 10823 10827 10833 10833 10838 10842 10844 10846 10847 10847 10849 10856 10860 10862 10864 10862 10859 10858 10855 10850 10842 10838 10835 10835 10833 10831 10829 10826 10821 10812
10686 10689 10696 10700 10706 10709 10715 10722 10730 10738 10753 10767 10784 10797 10806 10812 10820 10820 10826 10827 10831 10831 10835 10838 10842 10851 10854 10856 10857 10854 10852 10849 10845 10842 10837 10832 10825 10827 10825 10823 10818 10814 10809 10802
10674 10675 10678 10681 10689 10694 10703 10706 10716 10723 10736 10749 10762 10777 10789 10796 10804 10808 10813 10815 10819 10820 10825 10830 10837 10844 10850 10853 10846 10846 10842 10836 10834 10832 10826 10823 10820 10817 10816 10812 10809 10803 10798 10790
10662 10660 10662 10666 10672 10684 10690 10690 10697 10704 10714 10727 10741 10758 10771 10782 10791 10799 10803 10805 10809 10813 10820 10826 10831 10838 10844 10842 10840 10837 10824 10826 10824 10822 10818 10815 10811 10806 10804 10802 10798 10794 10787 10778
10650 10649 10650 10653 10657 10666 10672 10677 10681 10687 10700 10715 10723 10736 10751 10768 10776 10783 10788 10791 10795 10799 10808 10814 10821 10826 10828 10832 10827 10821 10816 10815 10809 10808 10805 10803 10799 10796 10795 10792 10787 10780 10772 10764
10641 10639 10639 10642 10644 10653 10657 10659 10668 10674 10681 10698 10708 10718 10731 10745 10756 10763 10772 10776 10779 10789 10797 10805 10807 10811 10814 10817 10815 10810 10810 10804 10794 10793 10792 10792 10790 10789 10786 10781 10774 10768 10758 10748
10630 10631 10630 10628 10632 10640 10642 10647 10654 10661 10672 10684 10695 10702 10712 10724 10734 10742 10753 10762 10770 10777 10785 10793 10791 10797 10796 10796 10800 10800 10797 10789 10781 10782 10784 10783 10780 10778 10775 10768 10762 10754 10743 10736